Retour au catalogue

USA 358

ActifMilitaireVLEO
NORAD 59818·PAYLOAD·🇺🇸 United States

Lancé May 22, 2024 depuis Vandenberg Space Force Base

Loading…

Prochains Passages (prochaines 24 heures)

TLE

PériméSource: Mike McCants

Époque: Sep 4, 2026, 19:16 UTC

1 59818U 24096E   26247.80288736 0.00000000  00000-0  00000-0 0    08
2 59818  70.0180 127.0283 0002000  60.8116 299.1884 14.96713200    00

Suivez USA 358 en temps réel avec AllMySat

Download on the App Store